sat.trackr.live / text

‹ back to catalog

STARLINK-34517

NORAD 64595 · 2025-137B

PAYLOAD ACTIVE UNKNOWN

§ Identity

Operator
Country
US
Launch date
2025-06-25
Launch site
AFETR
Launch vehicle
Mass (kg)
RCS (m²)

Purposes: comms

External: N2YO · Heavens-Above · Gunter

§ Orbital elements

Epoch: 2026-09-20T23:00:07.404192Z

Period
93.85 min
Inclination
53.1552°
Eccentricity
0.0000258
Mean motion
15.34401668 rev/d
Perigee alt
462.5 km
Apogee alt
462.9 km
Semi-major
6,840.8 km
B*
4.8804e-4
RAAN
145.2412°
Arg perigee
34.8767°
Mean anomaly
325.2253°
Rev number
7,067

§ Raw data

STARLINK-345171 64595U 25137B   26263.95841903  .00016150  00000+0  48804-3 0  99942 64595  53.1552 145.2412 0000258  34.8767 325.2253 15.34401668 70671

JSON: /api/v1/satellites/64595 · /tle

For live sub-satellite position, see the globe view (requires WebGL).

§ Visibility from observer

Set your observer location to see the next 7 days of passes ≥ 10°. The values pass through the URL so the page stays shareable.

No JS? Fill the form by hand. The geolocation button needs JavaScript.